Location: Wald
(31.7579°N, 86.6655°W)
Time: 12:18:24
(UTC+00:00)

Cosmos 2297 - Pass Details

Date: 14 July 2020
Orbit: 835 x 859 km, 71.0° (Epoch: 08 August)

Event Time Altitude Azimuth Distance (km) Brightness Sun altitude
Rises 03:51:56 0° 343° (NNW) 3,429 8.0 -29.3°
Reaches altitude 10° 03:54:26 10° 347° (NNW) 2,487 7.0 -29.6°
Enters shadow 03:59:19 58° 28° (NNE) 987 4.0 -30.1°
